Back to catalog

SL-16 DEB

AliveLEO
NORAD 22358·DEBRIS·🇷🇺 Russia

Launched Dec 25, 1992 from Baikonur Cosmodrome

Loading…

Next Passes (next 24 hours)

TLE

FreshSource: Space-Track

Epoch: Sep 14, 2026, 11:09 UTC

1 22358U 92093AX  26257.46523916  .00000009  00000-0  42321-4 0  9996
2 22358  71.2275  62.2149 0147528 242.6298 146.4241 13.84979736703201

Track SL-16 DEB in real time with AllMySat

Download on the App Store